Theta_e
306 297 295 297 300 300 298 296 295 299 303 299 298 298 301 302 301 301 302 303 304 308 315 316 318 320 320 320 319 319 321 321 321 320 317 318 317 318 319 320 325 325 334 327
300 295 302 304 303 301 298 296 295 299 303 299 297 297 300 301 302 303 304 303 302 311 313 316 315 317 318 317 317 319 320 320 319 319 319 321 318 318 320 318 319 322 324 325
297 300 306 304 301 300 297 295 295 294 298 298 296 293 296 302 304 304 301 302 303 305 310 313 315 315 317 317 317 318 318 319 319 320 318 318 316 316 316 318 320 321 323 326
299 304 304 301 300 299 293 301 299 297 293 286 295 287 294 298 300 303 301 300 301 303 305 313 314 314 314 317 318 318 317 317 321 319 316 314 313 311 313 316 319 321 321 322
300 302 301 299 300 301 296 301 298 298 292 290 292 287 294 297 297 301 303 305 304 307 307 312 313 315 315 316 314 319 318 316 318 318 317 314 313 314 315 315 316 317 320 323
303 307 304 301 304 304 303 298 297 294 290 283 291 290 288 294 297 301 304 305 308 309 309 309 311 313 313 317 316 316 317 317 319 318 317 316 314 315 314 313 314 316 318 319
300 300 304 306 300 302 298 291 282 281 281 283 293 289 289 298 301 301 301 303 306 308 307 308 308 308 311 311 315 319 316 315 318 316 316 315 315 314 313 312 312 312 316 316
292 291 300 304 299 294 294 289 282 279 279 284 292 285 289 300 302 303 304 305 308 308 308 308 308 308 309 312 314 314 314 316 316 314 315 314 313 313 313 312 312 314 314 316
291 293 302 303 303 299 294 288 294 286 288 284 287 292 296 302 302 302 302 303 305 306 305 306 307 310 311 311 312 312 312 312 315 312 312 312 313 312 314 312 312 313 314 317
297 288 299 301 303 302 296 298 286 288 281 279 285 288 289 294 297 301 300 301 303 305 304 307 308 309 311 311 310 309 309 310 311 310 311 312 311 312 313 312 311 311 313 314
297 292 294 298 295 293 294 290 290 290 290 279 280 283 297 295 295 295 297 300 301 301 303 304 304 307 309 309 308 308 308 308 308 308 308 308 310 311 310 310 310 310 312 314
298 294 288 292 298 300 297 295 293 287 285 288 287 286 298 298 298 298 299 301 301 303 305 304 303 305 305 308 310 308 306 305 307 307 306 306 308 307 306 306 307 308 309 311
296 289 281 286 292 298 294 296 294 292 289 284 283 284 300 300 297 298 299 299 299 301 300 302 302 303 303 303 305 305 305 304 305 305 304 303 304 304 303 304 305 306 306 307
302 291 288 282 289 295 291 294 296 292 285 286 287 290 293 295 295 297 297 298 298 298 300 300 301 301 303 303 303 304 303 304 303 304 303 302 302 302 302 302 303 304 305 306
296 289 293 296 296 296 294 294 294 290 292 285 288 288 292 294 295 296 298 298 298 299 299 299 299 299 301 301 301 302 302 303 302 302 301 300 301 301 302 302 302 304 304 306
297 289 293 291 296 295 292 295 294 294 294 292 292 291 296 297 297 297 296 297 297 297 299 299 300 301 301 301 301 301 301 301 301 300 300 301 301 301 302 302 303 302 303 305
294 291 289 285 293 292 284 292 293 293 295 294 286 291 295 295 296 296 296 297 296 297 298 298 299 299 299 299 300 299 300 301 300 300 301 301 301 301 302 301 301 302 303 305
294 293 291 285 288 278 291 299 298 295 295 296 295 295 296 296 298 298 299 298 297 297 297 297 298 298 299 299 299 299 299 300 300 300 301 301 301 302 302 300 301 302 303 306
300 295 287 281 282 289 292 295 290 288 289 296 293 296 297 298 298 295 299 299 298 297 297 297 298 298 298 298 298 299 299 299 300 300 300 299 300 300 299 299 300 302 304 308
299 297 290 285 279 278 289 297 300 297 281 296 297 296 295 296 289 292 299 299 297 296 296 296 297 297 298 298 298 298 297 297 297 298 298 300 300 299 299 300 301 303 305 309
288 288 284 283 280 287 296 299 300 281 287 297 297 296 295 293 296 298 297 296 296 295 295 296 297 297 296 297 297 296 296 296 298 299 300 299 300 300 301 300 301 303 306 307
286 283 281 284 281 278 299 297 287 294 296 297 297 298 297 298 297 296 295 295 294 294 295 296 295 295 296 297 296 295 295 297 299 299 298 298 299 300 301 302 303 308 306 304
284 290 286 287 286 297 299 295 299 299 297 297 297 300 297 296 294 294 294 293 294 294 294 295 294 294 295 296 296 294 295 297 298 297 297 298 299 300 302 303 306 305 305 304
292 297 290 291 295 296 298 299 300 300 299 300 299 296 295 293 293 293 293 293 293 294 294 294 294 293 293 295 296 296 297 298 297 297 297 299 299 302 306 309 307 304 304 302
294 295 293 292 294 296 298 299 301 301 301 300 298 296 294 293 293 293 293 293 294 294 294 294 294 294 294 295 296 297 298 298 297 297 298 299 302 302 299 295 298 304 302 303
297 293 288 289 295 294 295 299 301 298 298 298 297 295 295 294 293 294 293 294 294 294 295 294 295 295 296 297 297 298 300 299 298 297 298 300 302 301 300 298 296 293 294 295
Wind_Speed
6 2 6 2 6 5 6 7 7 8 11 5 6 7 9 8 7 9 9 9 9 9 11 13 14 14 12 10 9 9 8 4 3 3 4 5 5 7 7 5 9 10 10 12
8 6 7 6 8 7 6 8 9 7 7 8 9 14 12 11 12 13 16 11 8 12 12 14 12 9 10 10 10 9 8 6 2 1 1 0 2 4 5 4 7 7 12 11
5 9 14 5 6 7 6 5 8 8 9 8 9 10 9 20 18 15 5 10 9 14 12 12 12 10 11 10 9 9 9 7 4 3 1 2 2 2 5 10 11 11 12 12
6 11 15 7 3 7 5 10 11 11 8 4 3 13 10 12 14 12 5 8 8 8 7 10 10 10 9 9 9 10 9 7 5 4 0 2 1 2 2 4 7 12 13 11
8 12 11 5 2 8 6 3 6 9 8 8 7 3 12 9 10 21 22 18 16 25 9 4 9 13 8 8 6 8 7 3 3 3 3 1 2 3 2 3 7 11 12 10
10 13 4 5 7 5 6 8 7 5 4 4 7 4 7 7 12 16 17 17 19 20 17 18 19 21 13 13 10 12 11 8 10 3 5 3 4 5 4 4 6 7 7 9
13 11 9 14 6 7 8 8 6 6 6 7 8 7 6 8 13 15 14 12 13 13 13 15 13 12 13 14 11 9 8 7 12 9 5 4 4 5 7 5 5 7 5 9
4 8 16 17 9 4 4 1 5 6 3 8 4 6 6 7 12 10 10 12 11 9 8 9 7 6 3 5 3 4 4 8 13 11 6 5 5 4 5 4 2 6 7 8
4 5 22 14 11 5 5 3 9 5 5 4 5 8 5 15 12 8 7 8 6 4 4 6 5 4 2 4 5 5 9 12 12 6 5 4 4 4 5 6 4 3 7 8
4 5 6 12 14 7 4 6 7 4 5 11 2 6 8 11 18 10 11 9 10 11 9 11 8 6 5 8 6 9 11 9 4 3 3 4 6 6 5 3 5 6 9 10
4 4 6 8 4 11 13 8 6 0 3 1 5 6 16 15 8 6 5 6 6 6 6 6 7 9 8 7 8 8 9 6 3 3 4 2 2 2 4 5 5 6 10 9
1 2 4 8 19 12 8 6 5 2 10 8 9 11 13 13 11 9 12 6 5 6 5 8 9 9 7 7 7 9 5 7 6 5 6 6 4 4 4 5 6 7 11 12
2 3 5 9 8 12 10 14 13 12 2 6 5 7 16 13 5 7 8 7 7 7 8 8 8 8 9 7 7 6 7 7 7 6 5 6 6 6 5 6 7 9 12 13
7 3 6 6 11 13 13 15 17 11 1 4 4 5 7 10 11 13 10 11 9 8 8 9 10 10 12 8 8 7 7 4 5 5 5 6 6 6 6 7 8 11 12 14
5 5 5 9 14 17 20 20 11 9 5 2 9 14 8 10 10 9 10 11 14 14 14 12 11 8 11 9 8 10 8 6 6 6 6 7 7 7 8 10 11 10 13 13
4 3 6 8 12 16 19 12 12 12 10 2 9 13 8 9 10 9 12 17 18 18 15 17 18 16 15 13 14 10 7 8 7 10 12 11 9 10 10 11 11 13 14 13
3 2 3 6 10 15 8 8 9 7 9 9 7 5 9 12 12 12 16 16 14 16 19 22 21 19 13 12 9 10 11 10 10 11 12 10 9 10 11 13 13 14 14 12
5 3 3 6 7 3 3 5 7 9 11 10 4 10 13 13 16 13 16 8 14 17 19 21 17 15 15 12 14 13 13 11 10 11 11 9 9 11 11 14 13 14 10 13
7 3 2 2 1 10 5 8 4 5 17 4 8 15 15 16 16 14 7 13 14 17 19 17 17 17 17 16 12 13 13 11 12 11 9 10 12 12 11 12 13 11 10 12
4 2 2 2 4 4 2 8 6 11 5 10 15 13 14 15 15 15 16 16 19 21 18 18 19 18 17 12 14 14 13 12 12 10 11 9 11 12 11 11 10 10 10 13
5 5 3 4 3 4 6 7 7 6 8 15 9 11 12 11 10 17 17 20 20 19 21 20 18 15 20 15 13 14 14 13 11 10 11 10 11 11 8 10 10 9 12 2
2 2 2 4 4 4 10 6 5 7 7 8 11 10 13 12 15 17 22 21 21 24 23 20 17 16 16 15 12 14 14 12 10 10 10 10 10 8 9 9 9 9 3 3
3 2 5 7 6 5 9 4 5 6 7 7 10 10 9 13 15 19 19 20 20 21 20 17 16 17 16 14 11 13 13 11 10 9 9 8 9 9 9 9 8 3 3 3
5 4 1 4 3 6 7 8 9 8 8 9 6 6 8 13 16 18 18 18 19 18 18 17 17 17 17 14 12 12 12 10 9 9 8 7 8 9 8 5 5 3 3 4
2 4 3 5 4 7 4 9 13 9 6 7 4 5 8 14 15 15 18 19 18 19 17 17 16 15 18 15 14 11 10 9 8 8 7 7 4 0 4 6 4 2 4 3
3 2 2 4 6 5 9 10 9 7 7 7 7 7 9 12 15 17 17 17 18 19 19 17 17 16 17 14 12 11 9 8 8 6 5 4 3 2 2 4 5 16 9 11
Wind_Direction
255 24 279 355 80 27 345 331 315 294 283 356 334 331 323 324 323 287 270 257 246 113 116 118 123 124 123 125 126 142 124 107 47 17 0 346 344 330 322 323 344 332 352 4
336 245 277 8 19 1 325 299 287 285 341 15 337 312 302 293 280 264 258 251 130 138 140 141 142 143 147 155 155 145 132 147 129 98 312 255 325 303 292 326 324 336 345 342
333 292 328 44 358 322 311 338 350 332 334 353 339 311 322 302 296 291 202 147 129 141 160 158 156 159 159 160 158 145 159 163 142 158 88 338 304 316 346 343 335 336 334 333
316 332 321 338 302 46 2 351 350 338 354 291 33 294 301 282 289 300 184 157 170 179 162 159 162 177 169 166 156 160 156 164 162 149 121 109 213 311 282 301 319 320 326 320
268 298 296 322 51 32 287 318 306 293 292 316 288 251 292 302 356 17 18 12 23 20 34 128 190 182 158 138 83 71 62 45 133 173 226 191 279 263 270 308 316 316 313 318
307 308 301 55 22 358 329 354 324 340 307 329 278 24 301 37 54 33 24 33 41 36 38 38 25 36 37 55 59 59 40 357 331 231 248 238 270 288 311 307 311 308 314 321
318 20 56 33 11 346 16 15 336 348 354 248 332 3 249 63 49 45 21 20 40 50 43 43 36 33 31 25 30 33 17 317 293 263 234 254 260 276 280 277 286 303 315 317
10 325 29 352 335 293 351 38 162 264 270 278 341 263 266 97 39 34 45 18 23 45 44 73 71 49 50 94 123 147 174 234 233 209 196 211 233 249 265 269 277 293 297 300
16 287 338 332 323 66 313 310 242 272 297 306 225 273 351 79 22 40 34 23 40 37 48 71 147 123 10 263 219 231 254 245 242 182 204 239 244 263 249 264 279 280 289 298
5 321 276 307 334 313 260 292 351 312 310 277 326 324 271 8 9 18 11 24 10 8 10 5 347 306 251 267 284 259 257 242 233 208 205 225 242 247 267 326 319 296 286 298
6 151 294 339 292 329 325 323 329 133 12 256 324 293 314 9 34 10 1 54 16 351 357 336 305 296 279 249 267 288 299 279 304 278 270 288 306 326 14 352 319 299 301 313
97 257 300 287 288 289 346 350 360 124 286 247 262 272 7 342 19 355 359 44 2 323 274 288 298 306 304 268 281 282 330 13 8 6 359 346 351 357 347 317 305 302 304 306
117 337 342 327 338 345 358 331 317 311 8 329 334 285 319 313 9 352 3 36 359 343 332 307 319 330 317 321 336 6 359 2 353 352 349 331 325 330 329 324 300 301 300 299
98 168 174 222 269 296 314 309 308 298 156 306 281 297 297 12 1 357 4 350 335 326 325 313 313 317 317 351 336 337 323 328 320 316 316 313 312 308 304 284 287 296 297 295
127 201 244 289 315 311 307 314 352 353 351 118 324 321 355 356 347 339 322 334 326 318 316 321 320 317 315 311 302 299 295 292 288 290 294 280 279 279 276 282 289 287 288 284
348 291 307 286 296 299 304 329 5 359 8 294 307 314 8 316 327 330 331 323 321 317 329 322 316 309 307 307 303 305 302 295 287 287 279 275 273 273 276 287 289 291 284 286
244 251 325 265 296 313 326 15 358 340 325 326 319 304 316 324 323 319 323 309 318 326 321 318 310 302 300 300 299 296 290 279 274 274 276 270 269 269 276 290 288 285 287 291
211 263 246 276 329 275 177 60 344 311 305 318 355 324 315 315 313 316 302 306 318 312 312 308 303 302 297 296 296 291 286 282 282 272 271 269 271 276 273 286 282 281 288 285
150 162 253 318 281 266 313 27 319 315 302 78 335 328 317 314 312 307 305 324 316 319 308 302 304 301 302 297 291 292 290 289 284 280 279 288 287 278 278 281 278 284 288 292
131 257 148 262 283 306 107 349 305 291 287 6 331 312 315 327 315 315 334 330 322 312 310 310 304 298 292 300 308 301 296 289 284 286 285 282 285 281 280 272 277 281 282 282
351 346 297 314 280 259 30 22 323 42 290 313 304 308 315 312 298 316 324 320 314 312 312 312 309 313 305 301 302 293 292 284 283 289 279 282 278 270 269 274 269 271 270 258
298 9 325 1 299 309 5 28 90 240 272 296 317 315 310 320 316 321 321 316 315 314 313 310 305 302 301 298 294 287 284 287 284 273 276 276 272 274 273 268 271 273 191 170
336 234 193 170 234 350 349 307 305 305 307 308 313 323 339 326 322 320 317 316 312 312 309 308 303 300 298 293 283 280 281 283 281 274 274 272 274 267 262 260 266 152 169 120
295 38 31 25 297 349 308 341 317 303 290 305 324 339 336 322 318 318 316 314 314 311 310 309 305 300 296 295 285 269 275 272 269 269 272 269 268 269 269 255 134 143 142 113
231 58 354 269 321 328 322 296 290 300 332 328 334 338 333 323 318 319 315 313 311 310 310 308 303 299 292 292 286 277 266 260 248 257 270 275 275 191 57 57 33 86 58 104
121 187 154 241 277 238 268 280 315 359 322 351 346 333 334 325 318 317 313 310 310 311 313 310 307 303 298 291 280 278 260 238 224 235 257 260 144 104 70 94 68 43 54 91